DLH2280 EDDM-LFKB

Flight info

Callsign DLH2280
Flight time 1h 9m
Altitude 35000
Route TURBU7W TURBU Y107 TOBSO DCT BAKOR DCT OSBUL DCT OLETI M858 LIGUR LIGUR1R
Aircraft A321/M-SDE3FGHIRWY/LB1

Departure

Time 2026-05-05 18:54
Airport Munich Airport (EDDM)

Arrival

Time 2026-05-05 20:03
Airport Bastia-Poretta International airport (LFKB)
Time Latitude Longitude Altitude Speed Heading
2026-05-05 18:35 48.35319 11.79757 1481 ft 0 kts 83°
2026-05-05 18:46 48.35318 11.79743 1473 ft 4 kts 83°
2026-05-05 18:46 48.35315 11.79702 1477 ft 4 kts 83°
2026-05-05 18:46 48.35312 11.79670 1473 ft 4 kts 88°
2026-05-05 18:46 48.35317 11.79633 1477 ft 4 kts 126°
2026-05-05 18:47 48.35336 11.79611 1474 ft 4 kts 172°
2026-05-05 18:47 48.35360 11.79606 1475 ft 2 kts 173°
2026-05-05 18:47 48.35361 11.79606 1475 ft 0 kts 173°
2026-05-05 18:49 48.35352 11.79607 1473 ft 5 kts 174°
2026-05-05 18:49 48.35297 11.79616 1480 ft 12 kts 174°
2026-05-05 18:50 48.35206 11.79632 1485 ft 14 kts 173°
2026-05-05 18:50 48.35102 11.79649 1485 ft 15 kts 174°
2026-05-05 18:50 48.34997 11.79666 1485 ft 15 kts 173°
2026-05-05 18:50 48.34927 11.79680 1474 ft 6 kts 173°
2026-05-05 18:51 48.34881 11.79688 1485 ft 7 kts 173°
2026-05-05 18:51 48.34826 11.79698 1472 ft 9 kts 173°
2026-05-05 18:51 48.34763 11.79708 1479 ft 10 kts 174°
2026-05-05 18:51 48.34697 11.79693 1485 ft 10 kts 204°
2026-05-05 18:52 48.34666 11.79625 1479 ft 8 kts 236°
2026-05-05 18:52 48.34625 11.79541 1475 ft 12 kts 233°
2026-05-05 18:52 48.34584 11.79460 1477 ft 18 kts 232°
2026-05-05 18:52 48.34504 11.79299 1478 ft 20 kts 232°
2026-05-05 18:53 48.34422 11.79134 1475 ft 20 kts 234°
2026-05-05 18:53 48.34364 11.78941 1478 ft 25 kts 261°
2026-05-05 18:53 48.34316 11.78315 1486 ft 94 kts 263°
2026-05-05 18:53 48.34218 11.77029 1475 ft 152 kts 263°
2026-05-05 18:54 48.34088 11.75352 1955 ft 162 kts 265°
2026-05-05 18:54 48.33965 11.73673 2689 ft 162 kts 268°
2026-05-05 18:54 48.33738 11.71939 3002 ft 182 kts 246°
2026-05-05 18:54 48.32700 11.70638 3143 ft 215 kts 202°
2026-05-05 18:55 48.31170 11.70310 3526 ft 228 kts 186°
2026-05-05 18:55 48.29558 11.70376 4059 ft 236 kts 174°
2026-05-05 18:55 48.28014 11.71311 4644 ft 249 kts 149°
2026-05-05 18:55 48.26558 11.72944 4879 ft 272 kts 146°
2026-05-05 18:56 48.24987 11.74634 5376 ft 281 kts 147°
2026-05-05 18:56 48.23370 11.76299 6095 ft 282 kts 148°
2026-05-05 18:56 48.21742 11.77944 6801 ft 283 kts 148°
2026-05-05 18:56 48.20104 11.79588 7492 ft 284 kts 148°
2026-05-05 18:57 48.18425 11.81225 8174 ft 284 kts 154°
2026-05-05 18:57 48.16613 11.82383 8863 ft 283 kts 165°
2026-05-05 18:57 48.14763 11.83297 9550 ft 284 kts 164°
2026-05-05 18:57 48.12878 11.84231 10104 ft 291 kts 164°
2026-05-05 18:58 48.10884 11.85212 10223 ft 312 kts 164°
2026-05-05 18:58 48.08760 11.86260 10350 ft 331 kts 164°
2026-05-05 18:58 48.06516 11.87371 10475 ft 349 kts 164°
2026-05-05 18:58 48.04159 11.88536 10600 ft 365 kts 164°
2026-05-05 18:59 48.01712 11.89745 10883 ft 375 kts 163°
2026-05-05 18:59 47.99217 11.90986 11326 ft 379 kts 163°
2026-05-05 18:59 47.96673 11.92254 11826 ft 382 kts 163°
2026-05-05 18:59 47.94169 11.93498 12320 ft 386 kts 163°
2026-05-05 19:00 47.91579 11.94540 12808 ft 387 kts 172°
2026-05-05 19:00 47.88895 11.94855 13292 ft 389 kts 182°
2026-05-05 19:00 47.86182 11.94795 13765 ft 391 kts 182°
2026-05-05 19:00 47.83448 11.94729 14199 ft 394 kts 182°
2026-05-05 19:01 47.80696 11.94668 14635 ft 396 kts 182°
2026-05-05 19:01 47.77930 11.94610 15058 ft 399 kts 182°
2026-05-05 19:01 47.75149 11.94555 15517 ft 401 kts 183°
2026-05-05 19:01 47.72354 11.94503 15972 ft 403 kts 183°
2026-05-05 19:02 47.69543 11.94456 16415 ft 404 kts 183°
2026-05-05 19:02 47.66727 11.94412 16848 ft 405 kts 183°
2026-05-05 19:02 47.63898 11.94366 17243 ft 408 kts 183°
2026-05-05 19:02 47.61053 11.94318 17668 ft 410 kts 183°
2026-05-05 19:03 47.58193 11.94269 18062 ft 412 kts 184°
2026-05-05 19:03 47.55315 11.94217 18454 ft 414 kts 184°
2026-05-05 19:03 47.52426 11.94164 18858 ft 416 kts 184°
2026-05-05 19:03 47.49527 11.94111 19271 ft 417 kts 184°
2026-05-05 19:04 47.46624 11.94061 19672 ft 418 kts 184°
2026-05-05 19:04 47.43714 11.94004 20061 ft 419 kts 186°
2026-05-05 19:04 47.40819 11.93561 20444 ft 418 kts 191°
2026-05-05 19:04 47.37934 11.92981 20814 ft 419 kts 191°
2026-05-05 19:05 47.35035 11.92397 21158 ft 421 kts 191°
2026-05-05 19:05 47.32125 11.91811 21529 ft 423 kts 191°
2026-05-05 19:05 47.29202 11.91224 21889 ft 425 kts 191°
2026-05-05 19:05 47.26270 11.90640 22286 ft 426 kts 191°
2026-05-05 19:06 47.23325 11.90056 22669 ft 428 kts 191°
2026-05-05 19:06 47.20367 11.89472 23008 ft 429 kts 191°
2026-05-05 19:06 47.17405 11.88885 23385 ft 431 kts 191°
2026-05-05 19:06 47.14426 11.88296 23693 ft 432 kts 191°
2026-05-05 19:07 47.11442 11.87706 23956 ft 434 kts 191°
2026-05-05 19:07 47.08440 11.87110 24246 ft 436 kts 191°
2026-05-05 19:07 47.05433 11.86513 24564 ft 437 kts 191°
2026-05-05 19:07 47.02409 11.85923 24804 ft 439 kts 191°
2026-05-05 19:08 46.99396 11.85230 25096 ft 438 kts 193°
2026-05-05 19:08 46.96401 11.84357 25333 ft 439 kts 195°
2026-05-05 19:08 46.93425 11.83369 25547 ft 439 kts 196°
2026-05-05 19:08 46.90455 11.82334 25754 ft 440 kts 196°
2026-05-05 19:09 46.87470 11.81297 25995 ft 440 kts 196°
2026-05-05 19:09 46.84487 11.80293 26288 ft 439 kts 195°
2026-05-05 19:09 46.81506 11.79325 26595 ft 439 kts 195°
2026-05-05 19:09 46.78531 11.78384 26895 ft 437 kts 195°
2026-05-05 19:10 46.75560 11.77458 27147 ft 437 kts 195°
2026-05-05 19:10 46.72583 11.76534 27397 ft 437 kts 195°
2026-05-05 19:10 46.69609 11.75606 27631 ft 437 kts 195°
2026-05-05 19:10 46.66636 11.74674 27934 ft 436 kts 195°
2026-05-05 19:11 46.63676 11.73741 28258 ft 434 kts 196°
2026-05-05 19:11 46.60805 11.72470 28529 ft 430 kts 205°
2026-05-05 19:11 46.58131 11.70563 28814 ft 427 kts 212°
2026-05-05 19:11 46.55569 11.68412 29123 ft 425 kts 212°
2026-05-05 19:12 46.53003 11.66278 29423 ft 424 kts 212°
2026-05-05 19:12 46.50440 11.64158 29706 ft 423 kts 212°
2026-05-05 19:12 46.47883 11.62042 29991 ft 422 kts 212°
2026-05-05 19:12 46.45335 11.59931 30237 ft 422 kts 212°
2026-05-05 19:13 46.42795 11.57827 30496 ft 421 kts 212°
2026-05-05 19:13 46.40254 11.55727 30754 ft 420 kts 212°
2026-05-05 19:13 46.37720 11.53636 30993 ft 419 kts 212°
2026-05-05 19:13 46.35226 11.51577 31248 ft 417 kts 213°
2026-05-05 19:14 46.32673 11.49473 31509 ft 416 kts 213°
2026-05-05 19:14 46.30162 11.47410 31766 ft 415 kts 213°
2026-05-05 19:14 46.27653 11.45349 31995 ft 414 kts 213°
2026-05-05 19:14 46.25189 11.43327 32262 ft 413 kts 213°
2026-05-05 19:15 46.22694 11.41280 32512 ft 412 kts 213°
2026-05-05 19:15 46.20207 11.39239 32703 ft 411 kts 213°
2026-05-05 19:15 46.17725 11.37203 32941 ft 411 kts 213°
2026-05-05 19:15 46.15244 11.35169 33179 ft 410 kts 213°
2026-05-05 19:16 46.12765 11.33142 33427 ft 409 kts 213°
2026-05-05 19:16 46.10293 11.31125 33668 ft 408 kts 213°
2026-05-05 19:16 46.07826 11.29114 33935 ft 407 kts 213°
2026-05-05 19:16 46.05365 11.27110 34150 ft 406 kts 213°
2026-05-05 19:17 46.02907 11.25108 34337 ft 406 kts 213°
2026-05-05 19:17 46.00455 11.23115 34507 ft 405 kts 214°
2026-05-05 19:17 45.98007 11.21132 34714 ft 403 kts 213°
2026-05-05 19:17 45.95566 11.19157 34853 ft 402 kts 213°
2026-05-05 19:18 45.93125 11.17181 34983 ft 403 kts 213°
2026-05-05 19:18 45.90679 11.15196 35012 ft 405 kts 213°
2026-05-05 19:18 45.85767 11.11219 35013 ft 406 kts 213°
2026-05-05 19:19 45.80851 11.07247 35011 ft 404 kts 214°
2026-05-05 19:19 45.75969 11.03322 35011 ft 401 kts 213°
2026-05-05 19:20 45.71108 10.99420 35010 ft 400 kts 213°
2026-05-05 19:20 45.66251 10.95521 35012 ft 401 kts 213°
2026-05-05 19:21 45.61388 10.91628 35014 ft 400 kts 213°
2026-05-05 19:21 45.56531 10.87750 35011 ft 400 kts 214°
2026-05-05 19:22 45.51644 10.83846 35022 ft 400 kts 213°
2026-05-05 19:22 45.46782 10.79986 35025 ft 400 kts 213°
2026-05-05 19:23 45.41928 10.76133 35025 ft 399 kts 213°
2026-05-05 19:23 45.37084 10.72290 35026 ft 398 kts 213°
2026-05-05 19:24 45.32250 10.68465 35024 ft 398 kts 213°
2026-05-05 19:24 45.27414 10.64645 35010 ft 397 kts 213°
2026-05-05 19:25 45.22586 10.60842 35020 ft 397 kts 213°
2026-05-05 19:25 45.17762 10.57050 35025 ft 396 kts 213°
2026-05-05 19:26 45.12939 10.53269 35029 ft 396 kts 213°
2026-05-05 19:26 45.08117 10.49489 35028 ft 396 kts 213°
2026-05-05 19:27 45.03300 10.45725 35027 ft 396 kts 213°
2026-05-05 19:27 44.98478 10.41973 35032 ft 395 kts 213°
2026-05-05 19:28 44.93667 10.38218 35034 ft 395 kts 213°
2026-05-05 19:28 44.88849 10.34476 35020 ft 395 kts 213°
2026-05-05 19:29 44.84030 10.30743 35017 ft 395 kts 213°
2026-05-05 19:29 44.79750 10.26125 34998 ft 386 kts 225°
2026-05-05 19:30 44.75806 10.20985 34995 ft 387 kts 225°
2026-05-05 19:30 44.71875 10.15901 34982 ft 387 kts 225°
2026-05-05 19:31 44.67905 10.10791 34995 ft 387 kts 225°
2026-05-05 19:31 44.63909 10.05638 35007 ft 387 kts 224°
2026-05-05 19:32 44.59481 10.01346 35013 ft 391 kts 216°
2026-05-05 19:32 44.54894 9.97237 34981 ft 391 kts 216°
2026-05-05 19:33 44.50303 9.93144 34991 ft 391 kts 216°
2026-05-05 19:33 44.45709 9.89043 34992 ft 392 kts 216°
2026-05-05 19:34 44.41854 9.85608 34999 ft 392 kts 216°
2026-05-05 19:35 44.34947 9.79483 35008 ft 391 kts 216°
2026-05-05 19:35 44.30358 9.75413 35008 ft 391 kts 216°
2026-05-05 19:36 44.25768 9.71351 35008 ft 390 kts 216°
2026-05-05 19:36 44.21180 9.67304 35000 ft 390 kts 216°
2026-05-05 19:37 44.16596 9.63259 34988 ft 390 kts 216°
2026-05-05 19:37 44.12009 9.59224 34992 ft 390 kts 216°
2026-05-05 19:38 44.07422 9.55195 34996 ft 390 kts 216°
2026-05-05 19:38 44.02840 9.51171 34993 ft 390 kts 216°
2026-05-05 19:39 43.98312 9.47211 34987 ft 389 kts 216°
2026-05-05 19:39 43.93745 9.43224 34996 ft 385 kts 216°
2026-05-05 19:39 43.91481 9.41251 34631 ft 385 kts 216°
2026-05-05 19:40 43.89199 9.39259 33716 ft 389 kts 216°
2026-05-05 19:40 43.86897 9.37253 32750 ft 392 kts 216°
2026-05-05 19:40 43.84576 9.35236 31733 ft 396 kts 216°
2026-05-05 19:40 43.82257 9.33222 30643 ft 402 kts 216°
2026-05-05 19:41 43.79841 9.31118 29411 ft 408 kts 216°
2026-05-05 19:41 43.77417 9.29009 28094 ft 415 kts 215°
2026-05-05 19:41 43.74950 9.26872 26765 ft 422 kts 214°
2026-05-05 19:41 43.72444 9.24705 25418 ft 429 kts 214°
2026-05-05 19:42 43.69894 9.22502 24061 ft 436 kts 213°
2026-05-05 19:42 43.67313 9.20274 22968 ft 436 kts 213°
2026-05-05 19:42 43.64756 9.18075 22063 ft 430 kts 213°
2026-05-05 19:42 43.62234 9.15903 21159 ft 425 kts 213°
2026-05-05 19:43 43.59739 9.13752 20314 ft 420 kts 213°
2026-05-05 19:43 43.57273 9.11629 19488 ft 416 kts 212°
2026-05-05 19:43 43.54828 9.09531 18674 ft 412 kts 212°
2026-05-05 19:43 43.52406 9.07454 17843 ft 407 kts 213°
2026-05-05 19:44 43.50015 9.05450 17185 ft 397 kts 208°
2026-05-05 19:44 43.47484 9.04175 17063 ft 379 kts 194°
2026-05-05 19:44 43.44907 9.03882 16954 ft 373 kts 180°
2026-05-05 19:44 43.42341 9.04558 16869 ft 388 kts 165°
2026-05-05 19:45 43.39754 9.05837 16784 ft 391 kts 164°
2026-05-05 19:45 43.37205 9.07140 16697 ft 391 kts 163°
2026-05-05 19:45 43.34660 9.08460 16603 ft 391 kts 163°
2026-05-05 19:45 43.32150 9.09760 16498 ft 391 kts 163°
2026-05-05 19:46 43.29568 9.11092 16412 ft 391 kts 163°
2026-05-05 19:46 43.27059 9.12381 16326 ft 390 kts 163°
2026-05-05 19:46 43.24478 9.13702 16220 ft 391 kts 163°
2026-05-05 19:46 43.21964 9.14984 16137 ft 391 kts 163°
2026-05-05 19:47 43.19417 9.16279 16049 ft 390 kts 163°
2026-05-05 19:47 43.16873 9.17570 15967 ft 390 kts 163°
2026-05-05 19:47 43.14328 9.18857 15867 ft 389 kts 163°
2026-05-05 19:47 43.11793 9.20140 15785 ft 389 kts 163°
2026-05-05 19:48 43.09256 9.21427 15703 ft 388 kts 163°
2026-05-05 19:48 43.06723 9.22710 15584 ft 388 kts 163°
2026-05-05 19:48 43.04196 9.23987 15035 ft 386 kts 163°
2026-05-05 19:48 43.01692 9.25251 14405 ft 382 kts 163°
2026-05-05 19:49 42.99211 9.26505 13819 ft 379 kts 163°
2026-05-05 19:49 42.97577 9.27332 13386 ft 377 kts 163°
2026-05-05 19:49 42.94345 9.28964 12642 ft 373 kts 163°
2026-05-05 19:49 42.91921 9.30184 12083 ft 370 kts 163°
2026-05-05 19:50 42.89512 9.31392 11534 ft 367 kts 163°
2026-05-05 19:50 42.87141 9.32581 11187 ft 355 kts 162°
2026-05-05 19:50 42.84883 9.33722 11075 ft 338 kts 162°
2026-05-05 19:50 42.82733 9.34812 10934 ft 322 kts 162°
2026-05-05 19:51 42.80681 9.35850 10810 ft 307 kts 162°
2026-05-05 19:51 42.78717 9.36839 10689 ft 294 kts 162°
2026-05-05 19:51 42.76825 9.37785 10454 ft 287 kts 162°
2026-05-05 19:51 42.74968 9.38710 10202 ft 283 kts 162°
2026-05-05 19:52 42.73126 9.39624 9957 ft 281 kts 162°
2026-05-05 19:52 42.71294 9.40535 9820 ft 281 kts 162°
2026-05-05 19:52 42.69462 9.41445 9688 ft 280 kts 162°
2026-05-05 19:52 42.67636 9.42354 9558 ft 279 kts 162°
2026-05-05 19:53 42.65811 9.43266 9429 ft 279 kts 162°
2026-05-05 19:53 42.63987 9.44175 9298 ft 279 kts 162°
2026-05-05 19:53 42.62159 9.45085 8929 ft 281 kts 162°
2026-05-05 19:53 42.60322 9.45997 8449 ft 281 kts 162°
2026-05-05 19:54 42.58498 9.46905 8107 ft 277 kts 162°
2026-05-05 19:54 42.56728 9.47962 7636 ft 280 kts 152°
2026-05-05 19:54 42.55068 9.49294 7306 ft 276 kts 152°
2026-05-05 19:54 42.53411 9.50595 6932 ft 274 kts 153°
2026-05-05 19:55 42.51763 9.51873 6554 ft 272 kts 153°
2026-05-05 19:55 42.50119 9.53141 6139 ft 272 kts 153°
2026-05-05 19:55 42.48477 9.54406 5726 ft 271 kts 153°
2026-05-05 19:55 42.46844 9.55633 5425 ft 266 kts 153°
2026-05-05 19:56 42.45252 9.56809 5282 ft 255 kts 154°
2026-05-05 19:56 42.43726 9.57940 5156 ft 244 kts 154°
2026-05-05 19:56 42.42268 9.59029 4980 ft 236 kts 154°
2026-05-05 19:56 42.40844 9.60091 4681 ft 233 kts 153°
2026-05-05 19:57 42.39428 9.61134 4347 ft 231 kts 154°
2026-05-05 19:57 42.38474 9.61830 4121 ft 230 kts 154°
2026-05-05 19:57 42.36578 9.63041 3668 ft 225 kts 170°
2026-05-05 19:57 42.35053 9.62893 3314 ft 223 kts 202°
2026-05-05 19:58 42.33850 9.61610 2944 ft 224 kts 236°
2026-05-05 19:58 42.33446 9.59598 2570 ft 229 kts 274°
2026-05-05 19:58 42.34077 9.57685 2394 ft 224 kts 313°
2026-05-05 19:58 42.35414 9.56641 2407 ft 225 kts 341°
2026-05-05 19:59 42.36909 9.56027 2405 ft 225 kts 342°
2026-05-05 19:59 42.38381 9.55431 2410 ft 211 kts 342°
2026-05-05 19:59 42.39713 9.54879 2400 ft 190 kts 342°
2026-05-05 19:59 42.40926 9.54373 2396 ft 177 kts 342°
2026-05-05 20:00 42.42077 9.53893 2419 ft 168 kts 342°
2026-05-05 20:00 42.43179 9.53432 2264 ft 163 kts 342°
2026-05-05 20:00 42.44248 9.52986 2074 ft 160 kts 342°
2026-05-05 20:00 42.45309 9.52543 1874 ft 159 kts 342°
2026-05-05 20:01 42.46364 9.52102 1660 ft 158 kts 343°
2026-05-05 20:01 42.47408 9.51666 1442 ft 157 kts 343°
2026-05-05 20:01 42.48449 9.51228 1267 ft 158 kts 342°
2026-05-05 20:01 42.49490 9.50793 1059 ft 156 kts 343°
2026-05-05 20:02 42.50523 9.50358 852 ft 154 kts 343°
2026-05-05 20:02 42.51540 9.49943 644 ft 151 kts 343°
2026-05-05 20:02 42.52510 9.49533 426 ft 145 kts 342°
2026-05-05 20:02 42.53468 9.49125 237 ft 144 kts 343°
2026-05-05 20:03 42.54427 9.48733 50 ft 143 kts 343°
2026-05-05 20:03 42.55282 9.48377 37 ft 101 kts 343°
2026-05-05 20:03 42.55693 9.48204 28 ft 41 kts 342°
2026-05-05 20:03 42.55897 9.48115 30 ft 27 kts 342°
2026-05-05 20:04 42.55958 9.47998 25 ft 15 kts 261°
2026-05-05 20:04 42.55908 9.47878 25 ft 15 kts 195°
2026-05-05 20:04 42.55808 9.47891 27 ft 15 kts 163°
2026-05-05 20:04 42.55712 9.47931 29 ft 14 kts 162°
2026-05-05 20:05 42.55613 9.47971 32 ft 15 kts 164°
2026-05-05 20:05 42.55508 9.48013 35 ft 16 kts 161°
2026-05-05 20:05 42.55399 9.48062 35 ft 17 kts 162°
2026-05-05 20:05 42.55281 9.48111 35 ft 18 kts 163°
2026-05-05 20:06 42.55157 9.48163 35 ft 19 kts 162°
2026-05-05 20:06 42.55027 9.48217 35 ft 20 kts 161°
2026-05-05 20:06 42.54889 9.48255 35 ft 21 kts 164°
2026-05-05 20:06 42.54834 9.48277 35 ft 0 kts 163°
2026-05-05 20:07 42.54827 9.48280 35 ft 2 kts 163°
2026-05-05 20:07 42.54812 9.48281 35 ft 4 kts 191°
2026-05-05 20:07 42.54793 9.48242 34 ft 5 kts 249°
2026-05-05 20:07 42.54788 9.48221 35 ft 1 kts 252°
2026-05-05 20:08 42.54787 9.48217 35 ft 1 kts 252°
2026-05-05 20:08 42.54783 9.48199 35 ft 2 kts 252°
2026-05-05 20:08 42.54782 9.48194 35 ft 0 kts 252°
2026-05-05 20:08 42.54782 9.48193 35 ft 0 kts 252°